FLOCK 3R-10 (43740 NORAD) Tracking and Keplerian Element Data

This shows tracking and keplerian element data for the satellite.

Feedback or suggestion? Click here.




ElementValue
Catalog43740
NameFLOCK 3R-10
Epoch Orbit459
Epoch Day363.12946972
Epoch Year2018
RAAN68.1457
Inclination97.4816
Eccentricity0.0017624
Argument of Perigee213.7848
Mean Anonmoly146.2268
Mean Motion15.25991077
Decay Rate8.31E-06
L11 43740U 18096X 18363.12946972 .00000831 00000-0 35135-4 0 9996
L22 43740 97.4816 68.1457 0017624 213.7848 146.2268 15.25991077 4592

Live tracking and technical data element details for FLOCK 3R-10 (NORAD 43740). FLOCK 3R-10 can be tracked NOW for your location showing map with azimuth and elevation plus other details from your city location.

Track the satellite on the map from your city or location and see movement details for azimuth, elevation, latitude, longitude, range, height, and movement on the map or in text.







IsCatalogInMostPopularTable: catalog: 43740, numindb: 31
Update: records affected: 1



GetName: 43740 FLOCK 3R-10

Hit Count: updated at: Wed, 23 Jan 2019 02:39:59 GMT